AFR602 SOCA-SBBE

Flight info

Callsign AFR602
Flight time 1h 18m
Altitude 37000
Route EPKIP1A EPKIP DCT OIA UA555 VURTU/N0460F360 DCT KOGVU
Aircraft A320/M-SDE3FGHIRWY/LB1

Departure

Time 2026-04-26 00:23
Airport Cayenne – Félix Eboué Airport (SOCA)

Arrival

Time 2026-04-26 01:41
Airport Val de Cans/Júlio Cezar Ribeiro International Airport (SBBE)
Time Latitude Longitude Altitude Speed Heading
2026-04-26 00:03 4.82161 -52.36367 29 ft 0 kts 335°
2026-04-26 00:12 4.82140 -52.36357 29 ft 4 kts 338°
2026-04-26 00:13 4.82114 -52.36348 29 ft 4 kts 345°
2026-04-26 00:13 4.82088 -52.36343 29 ft 4 kts
2026-04-26 00:13 4.82066 -52.36351 29 ft 3 kts 62°
2026-04-26 00:13 4.82063 -52.36357 29 ft 0 kts 65°
2026-04-26 00:17 4.82070 -52.36343 29 ft 4 kts 62°
2026-04-26 00:17 4.82080 -52.36322 29 ft 3 kts 64°
2026-04-26 00:17 4.82087 -52.36309 29 ft 2 kts 64°
2026-04-26 00:17 4.82090 -52.36279 29 ft 4 kts 103°
2026-04-26 00:18 4.82077 -52.36258 29 ft 3 kts 133°
2026-04-26 00:18 4.82064 -52.36251 29 ft 2 kts 155°
2026-04-26 00:18 4.82060 -52.36249 29 ft 0 kts 155°
2026-04-26 00:19 4.82046 -52.36243 29 ft 8 kts 155°
2026-04-26 00:19 4.81993 -52.36219 29 ft 10 kts 164°
2026-04-26 00:19 4.81931 -52.36265 29 ft 14 kts 242°
2026-04-26 00:19 4.81885 -52.36365 29 ft 18 kts 245°
2026-04-26 00:20 4.81829 -52.36489 28 ft 22 kts 245°
2026-04-26 00:20 4.81762 -52.36638 28 ft 25 kts 246°
2026-04-26 00:20 4.81686 -52.36805 28 ft 27 kts 245°
2026-04-26 00:20 4.81604 -52.36980 28 ft 28 kts 245°
2026-04-26 00:21 4.81520 -52.37162 27 ft 29 kts 245°
2026-04-26 00:21 4.81454 -52.37306 27 ft 21 kts 247°
2026-04-26 00:21 4.81443 -52.37418 27 ft 11 kts 231°
2026-04-26 00:21 4.81418 -52.37407 27 ft 5 kts 121°
2026-04-26 00:22 4.81420 -52.37379 27 ft 3 kts 67°
2026-04-26 00:22 4.81430 -52.37357 27 ft 8 kts 64°
2026-04-26 00:22 4.81556 -52.37079 28 ft 80 kts 65°
2026-04-26 00:22 4.81875 -52.36385 29 ft 137 kts 65°
2026-04-26 00:23 4.82325 -52.35401 260 ft 157 kts 65°
2026-04-26 00:23 4.82784 -52.34427 985 ft 153 kts 64°
2026-04-26 00:23 4.83118 -52.33439 1561 ft 153 kts 79°
2026-04-26 00:23 4.83334 -52.32380 1974 ft 160 kts 78°
2026-04-26 00:24 4.83610 -52.31226 2118 ft 186 kts 76°
2026-04-26 00:24 4.83950 -52.29892 2335 ft 209 kts 76°
2026-04-26 00:24 4.84336 -52.28394 2649 ft 234 kts 76°
2026-04-26 00:24 4.84764 -52.26749 3194 ft 249 kts 76°
2026-04-26 00:25 4.85208 -52.25056 4055 ft 252 kts 76°
2026-04-26 00:25 4.85655 -52.23340 4866 ft 257 kts 76°
2026-04-26 00:25 4.86107 -52.21587 5662 ft 261 kts 78°
2026-04-26 00:25 4.86195 -52.19773 6398 ft 266 kts 100°
2026-04-26 00:26 4.85494 -52.18050 7119 ft 272 kts 124°
2026-04-26 00:26 4.84111 -52.16733 7855 ft 280 kts 147°
2026-04-26 00:26 4.82303 -52.15958 8554 ft 285 kts 157°
2026-04-26 00:26 4.80448 -52.15276 9247 ft 289 kts 158°
2026-04-26 00:27 4.78552 -52.14577 9939 ft 292 kts 157°
2026-04-26 00:27 4.76615 -52.13858 10356 ft 306 kts 157°
2026-04-26 00:27 4.74541 -52.13083 10497 ft 329 kts 157°
2026-04-26 00:27 4.72338 -52.12259 10761 ft 345 kts 157°
2026-04-26 00:28 4.70071 -52.11413 11332 ft 350 kts 157°
2026-04-26 00:28 4.67780 -52.10560 11938 ft 353 kts 157°
2026-04-26 00:28 4.65463 -52.09700 12559 ft 357 kts 157°
2026-04-26 00:28 4.63117 -52.08828 13171 ft 361 kts 157°
2026-04-26 00:29 4.60755 -52.07946 13766 ft 364 kts 158°
2026-04-26 00:29 4.58367 -52.07050 14320 ft 368 kts 157°
2026-04-26 00:29 4.55961 -52.06146 14858 ft 371 kts 158°
2026-04-26 00:29 4.53529 -52.05235 15418 ft 374 kts 158°
2026-04-26 00:30 4.51113 -52.04329 15950 ft 377 kts 158°
2026-04-26 00:30 4.48643 -52.03405 16468 ft 381 kts 158°
2026-04-26 00:30 4.46150 -52.02472 16964 ft 384 kts 158°
2026-04-26 00:30 4.43633 -52.01530 17484 ft 388 kts 158°
2026-04-26 00:31 4.41093 -52.00582 17988 ft 391 kts 158°
2026-04-26 00:31 4.38538 -51.99628 18481 ft 394 kts 158°
2026-04-26 00:31 4.35952 -51.98665 18943 ft 397 kts 158°
2026-04-26 00:31 4.33352 -51.97699 19401 ft 400 kts 158°
2026-04-26 00:32 4.30734 -51.96721 19855 ft 403 kts 158°
2026-04-26 00:32 4.28093 -51.95732 20306 ft 406 kts 158°
2026-04-26 00:32 4.22761 -51.93735 21173 ft 412 kts 158°
2026-04-26 00:33 4.20067 -51.92726 21593 ft 414 kts 158°
2026-04-26 00:33 4.17355 -51.91711 21991 ft 417 kts 157°
2026-04-26 00:33 4.14627 -51.90691 22375 ft 420 kts 158°
2026-04-26 00:33 4.11912 -51.89677 22742 ft 423 kts 158°
2026-04-26 00:34 4.09142 -51.88646 23110 ft 425 kts 157°
2026-04-26 00:34 4.06359 -51.87613 23471 ft 428 kts 158°
2026-04-26 00:34 4.03552 -51.86573 23816 ft 430 kts 158°
2026-04-26 00:34 4.00740 -51.85528 24142 ft 433 kts 157°
2026-04-26 00:35 3.97907 -51.84471 24472 ft 435 kts 157°
2026-04-26 00:35 3.95065 -51.83411 24804 ft 436 kts 157°
2026-04-26 00:35 3.92215 -51.82343 25131 ft 438 kts 157°
2026-04-26 00:35 3.89355 -51.81269 25445 ft 440 kts 157°
2026-04-26 00:36 3.86510 -51.80139 25761 ft 440 kts 152°
2026-04-26 00:36 3.83893 -51.78658 26066 ft 438 kts 144°
2026-04-26 00:36 3.81332 -51.76985 26365 ft 440 kts 144°
2026-04-26 00:36 3.78765 -51.75315 26670 ft 441 kts 144°
2026-04-26 00:37 3.76186 -51.73644 26964 ft 442 kts 144°
2026-04-26 00:37 3.73595 -51.71965 27254 ft 443 kts 144°
2026-04-26 00:37 3.71002 -51.70286 27539 ft 445 kts 144°
2026-04-26 00:37 3.68398 -51.68599 27824 ft 446 kts 144°
2026-04-26 00:38 3.65788 -51.66910 28102 ft 447 kts 144°
2026-04-26 00:38 3.64057 -51.65790 28280 ft 448 kts 144°
2026-04-26 00:38 3.61438 -51.64096 28534 ft 449 kts 144°
2026-04-26 00:38 3.58809 -51.62399 28788 ft 450 kts 144°
2026-04-26 00:39 3.56179 -51.60700 29033 ft 451 kts 144°
2026-04-26 00:39 3.53541 -51.58992 29266 ft 452 kts 144°
2026-04-26 00:39 3.50896 -51.57279 29492 ft 453 kts 144°
2026-04-26 00:39 3.48246 -51.55560 29716 ft 454 kts 144°
2026-04-26 00:40 3.44724 -51.53279 30002 ft 455 kts 144°
2026-04-26 00:40 3.42929 -51.52118 30142 ft 456 kts 144°
2026-04-26 00:40 3.40262 -51.50395 30335 ft 457 kts 144°
2026-04-26 00:40 3.37593 -51.48673 30596 ft 456 kts 144°
2026-04-26 00:41 3.34964 -51.46977 30865 ft 455 kts 144°
2026-04-26 00:41 3.32310 -51.45261 31127 ft 454 kts 144°
2026-04-26 00:41 3.29657 -51.43543 31382 ft 453 kts 144°
2026-04-26 00:41 3.27011 -51.41831 31644 ft 453 kts 144°
2026-04-26 00:42 3.24367 -51.40121 31908 ft 452 kts 144°
2026-04-26 00:42 3.21723 -51.38410 32174 ft 451 kts 144°
2026-04-26 00:42 3.19095 -51.36708 32429 ft 450 kts 144°
2026-04-26 00:42 3.16460 -51.35008 32677 ft 450 kts 145°
2026-04-26 00:43 3.13832 -51.33313 32929 ft 449 kts 144°
2026-04-26 00:43 3.11213 -51.31622 33176 ft 448 kts 145°
2026-04-26 00:43 3.08595 -51.29927 33406 ft 448 kts 145°
2026-04-26 00:43 3.05978 -51.28233 33656 ft 447 kts 145°
2026-04-26 00:44 3.03370 -51.26543 33898 ft 447 kts 145°
2026-04-26 00:44 3.00794 -51.24875 34145 ft 446 kts 145°
2026-04-26 00:44 2.98161 -51.23174 34406 ft 445 kts 145°
2026-04-26 00:44 2.95595 -51.21518 34651 ft 444 kts 145°
2026-04-26 00:45 2.93007 -51.19844 34883 ft 443 kts 145°
2026-04-26 00:45 2.90414 -51.18166 34961 ft 442 kts 145°
2026-04-26 00:45 2.85258 -51.14830 34971 ft 441 kts 145°
2026-04-26 00:46 2.80099 -51.11495 34970 ft 441 kts 145°
2026-04-26 00:46 2.74945 -51.08166 34971 ft 441 kts 145°
2026-04-26 00:47 2.69789 -51.04846 34971 ft 441 kts 145°
2026-04-26 00:47 2.64636 -51.01514 34972 ft 441 kts 145°
2026-04-26 00:48 2.59519 -50.98202 34972 ft 441 kts 145°
2026-04-26 00:48 2.54360 -50.94875 34976 ft 441 kts 145°
2026-04-26 00:49 2.49205 -50.91546 34977 ft 441 kts 145°
2026-04-26 00:49 2.44051 -50.88215 34977 ft 441 kts 145°
2026-04-26 00:50 2.38888 -50.84884 34978 ft 441 kts 145°
2026-04-26 00:50 2.33733 -50.81556 34973 ft 441 kts 145°
2026-04-26 00:51 2.28611 -50.78248 34969 ft 441 kts 145°
2026-04-26 00:51 2.23455 -50.74921 34965 ft 441 kts 145°
2026-04-26 00:52 2.18279 -50.71607 34965 ft 442 kts 148°
2026-04-26 00:52 2.12578 -50.69360 34962 ft 445 kts 160°
2026-04-26 00:53 2.06655 -50.67530 34960 ft 445 kts 160°
2026-04-26 00:53 2.00742 -50.65689 34953 ft 445 kts 160°
2026-04-26 00:54 1.94831 -50.63842 34947 ft 445 kts 160°
2026-04-26 00:54 1.88910 -50.62000 34951 ft 445 kts 160°
2026-04-26 00:55 1.82991 -50.60156 34952 ft 445 kts 160°
2026-04-26 00:55 1.77067 -50.58309 34951 ft 445 kts 160°
2026-04-26 00:56 1.71150 -50.56465 34952 ft 445 kts 160°
2026-04-26 00:56 1.65264 -50.54631 34953 ft 445 kts 160°
2026-04-26 00:57 1.59351 -50.52792 34951 ft 445 kts 160°
2026-04-26 00:57 1.53437 -50.50953 34951 ft 445 kts 160°
2026-04-26 00:58 1.47518 -50.49104 34949 ft 445 kts 160°
2026-04-26 00:58 1.41596 -50.47258 34948 ft 446 kts 160°
2026-04-26 00:59 1.35670 -50.45413 34949 ft 446 kts 160°
2026-04-26 00:59 1.29774 -50.43575 34940 ft 446 kts 160°
2026-04-26 01:00 1.23840 -50.41729 34946 ft 447 kts 160°
2026-04-26 01:00 1.17910 -50.39890 34948 ft 446 kts 160°
2026-04-26 01:01 1.11976 -50.38045 34946 ft 447 kts 160°
2026-04-26 01:01 1.06044 -50.36195 34944 ft 447 kts 160°
2026-04-26 01:02 1.00106 -50.34335 34944 ft 447 kts 160°
2026-04-26 01:02 0.94159 -50.32483 34938 ft 448 kts 160°
2026-04-26 01:03 0.88211 -50.30635 34938 ft 448 kts 159°
2026-04-26 01:03 0.82254 -50.28777 34942 ft 448 kts 159°
2026-04-26 01:04 0.76302 -50.26926 34937 ft 448 kts 159°
2026-04-26 01:04 0.70341 -50.25071 34941 ft 449 kts 159°
2026-04-26 01:05 0.64418 -50.23230 34934 ft 448 kts 159°
2026-04-26 01:05 0.58462 -50.21372 34935 ft 449 kts 159°
2026-04-26 01:06 0.52484 -50.19506 34937 ft 450 kts 159°
2026-04-26 01:06 0.46503 -50.17649 34939 ft 450 kts 159°
2026-04-26 01:07 0.40514 -50.15791 34942 ft 451 kts 159°
2026-04-26 01:07 0.34519 -50.13925 34941 ft 451 kts 159°
2026-04-26 01:08 0.28525 -50.12057 34946 ft 451 kts 159°
2026-04-26 01:08 0.22571 -50.10198 34946 ft 451 kts 159°
2026-04-26 01:09 0.16562 -50.08325 34951 ft 452 kts 159°
2026-04-26 01:09 0.10552 -50.06458 34950 ft 451 kts 159°
2026-04-26 01:10 0.04548 -50.04594 34954 ft 452 kts 159°
2026-04-26 01:10 -0.01450 -50.02724 34951 ft 452 kts 159°
2026-04-26 01:11 -0.07418 -50.00867 34952 ft 452 kts 159°
2026-04-26 01:11 -0.13425 -49.98994 34954 ft 452 kts 159°
2026-04-26 01:12 -0.19446 -49.97123 34955 ft 452 kts 159°
2026-04-26 01:12 -0.25453 -49.95255 34957 ft 452 kts 159°
2026-04-26 01:13 -0.31461 -49.93377 34697 ft 452 kts 159°
2026-04-26 01:13 -0.34466 -49.92441 34444 ft 453 kts 159°
2026-04-26 01:13 -0.37477 -49.91509 34194 ft 453 kts 159°
2026-04-26 01:14 -0.40494 -49.90573 33947 ft 454 kts 159°
2026-04-26 01:14 -0.43517 -49.89631 33695 ft 455 kts 159°
2026-04-26 01:14 -0.46542 -49.88690 33371 ft 456 kts 159°
2026-04-26 01:14 -0.49590 -49.87739 32334 ft 462 kts 160°
2026-04-26 01:15 -0.52664 -49.86781 31559 ft 461 kts 160°
2026-04-26 01:15 -0.55712 -49.85834 30980 ft 456 kts 160°
2026-04-26 01:15 -0.58731 -49.84897 30348 ft 452 kts 160°
2026-04-26 01:15 -0.61692 -49.83906 29730 ft 446 kts 155°
2026-04-26 01:16 -0.64402 -49.82528 29130 ft 440 kts 146°
2026-04-26 01:16 -0.66853 -49.80732 28528 ft 434 kts 139°
2026-04-26 01:16 -0.69174 -49.78828 27937 ft 431 kts 139°
2026-04-26 01:16 -0.71484 -49.76940 27347 ft 427 kts 139°
2026-04-26 01:17 -0.73779 -49.75072 26770 ft 424 kts 139°
2026-04-26 01:17 -0.76054 -49.73228 26200 ft 420 kts 139°
2026-04-26 01:17 -0.78320 -49.71392 25635 ft 416 kts 139°
2026-04-26 01:17 -0.80556 -49.69560 25087 ft 412 kts 136°
2026-04-26 01:18 -0.82510 -49.67498 24546 ft 406 kts 126°
2026-04-26 01:18 -0.84085 -49.65174 24041 ft 401 kts 121°
2026-04-26 01:18 -0.85564 -49.62875 23550 ft 397 kts 121°
2026-04-26 01:18 -0.87061 -49.60564 23073 ft 394 kts 121°
2026-04-26 01:19 -0.88547 -49.58281 22601 ft 390 kts 121°
2026-04-26 01:19 -0.90021 -49.56018 22141 ft 387 kts 121°
2026-04-26 01:19 -0.91479 -49.53774 21677 ft 383 kts 121°
2026-04-26 01:19 -0.92925 -49.51546 21219 ft 380 kts 121°
2026-04-26 01:20 -0.94360 -49.49337 20757 ft 377 kts 121°
2026-04-26 01:20 -0.95782 -49.47146 20318 ft 374 kts 121°
2026-04-26 01:20 -0.97193 -49.44976 19882 ft 371 kts 121°
2026-04-26 01:20 -0.98592 -49.42821 19408 ft 369 kts 121°
2026-04-26 01:21 -0.99986 -49.40673 18930 ft 367 kts 121°
2026-04-26 01:21 -1.01372 -49.38536 18469 ft 365 kts 121°
2026-04-26 01:21 -1.02750 -49.36414 17975 ft 364 kts 121°
2026-04-26 01:21 -1.04126 -49.34302 17496 ft 362 kts 121°
2026-04-26 01:22 -1.05495 -49.32199 17037 ft 360 kts 121°
2026-04-26 01:22 -1.06857 -49.30102 16569 ft 359 kts 121°
2026-04-26 01:22 -1.08214 -49.28007 16101 ft 358 kts 121°
2026-04-26 01:22 -1.09567 -49.25916 15636 ft 357 kts 121°
2026-04-26 01:23 -1.10913 -49.23840 15177 ft 355 kts 121°
2026-04-26 01:23 -1.12255 -49.21769 14715 ft 354 kts 122°
2026-04-26 01:23 -1.13591 -49.19707 14250 ft 353 kts 122°
2026-04-26 01:23 -1.14921 -49.17655 13785 ft 351 kts 122°
2026-04-26 01:24 -1.16246 -49.15613 13324 ft 349 kts 122°
2026-04-26 01:24 -1.17567 -49.13579 12852 ft 348 kts 122°
2026-04-26 01:24 -1.18865 -49.11581 12386 ft 346 kts 122°
2026-04-26 01:24 -1.20175 -49.09565 11906 ft 345 kts 123°
2026-04-26 01:25 -1.21477 -49.07560 11427 ft 343 kts 122°
2026-04-26 01:25 -1.22772 -49.05561 10929 ft 342 kts 122°
2026-04-26 01:25 -1.24060 -49.03572 10451 ft 340 kts 122°
2026-04-26 01:25 -1.25323 -49.01620 10300 ft 327 kts 122°
2026-04-26 01:26 -1.26534 -48.99750 10201 ft 314 kts 122°
2026-04-26 01:26 -1.27696 -48.97959 10070 ft 297 kts 122°
2026-04-26 01:26 -1.28780 -48.96289 9948 ft 276 kts 123°
2026-04-26 01:26 -1.29802 -48.94710 9547 ft 267 kts 122°
2026-04-26 01:27 -1.30807 -48.93154 9182 ft 266 kts 122°
2026-04-26 01:27 -1.31806 -48.91604 8807 ft 262 kts 122°
2026-04-26 01:27 -1.32450 -48.90606 8568 ft 254 kts 122°
2026-04-26 01:27 -1.33394 -48.89146 8241 ft 247 kts 122°
2026-04-26 01:28 -1.34325 -48.87708 7913 ft 245 kts 122°
2026-04-26 01:28 -1.35247 -48.86288 7578 ft 243 kts 122°
2026-04-26 01:28 -1.36162 -48.84875 7251 ft 241 kts 122°
2026-04-26 01:28 -1.37069 -48.83479 6929 ft 239 kts 122°
2026-04-26 01:29 -1.37972 -48.82087 6610 ft 238 kts 122°
2026-04-26 01:29 -1.38869 -48.80704 6294 ft 237 kts 123°
2026-04-26 01:29 -1.39764 -48.79325 5968 ft 235 kts 122°
2026-04-26 01:29 -1.40652 -48.77957 5641 ft 234 kts 122°
2026-04-26 01:30 -1.41533 -48.76596 5334 ft 232 kts 122°
2026-04-26 01:30 -1.42404 -48.75250 5048 ft 229 kts 122°
2026-04-26 01:30 -1.43267 -48.73914 5006 ft 229 kts 122°
2026-04-26 01:30 -1.44140 -48.72573 5005 ft 230 kts 122°
2026-04-26 01:31 -1.45013 -48.71231 5013 ft 231 kts 122°
2026-04-26 01:31 -1.45885 -48.69887 5015 ft 230 kts 122°
2026-04-26 01:31 -1.46880 -48.68639 5009 ft 230 kts 139°
2026-04-26 01:31 -1.48321 -48.67962 5006 ft 235 kts 171°
2026-04-26 01:32 -1.49925 -48.68181 5013 ft 237 kts 204°
2026-04-26 01:32 -1.51204 -48.69214 5013 ft 241 kts 235°
2026-04-26 01:32 -1.51786 -48.70776 5011 ft 243 kts 267°
2026-04-26 01:32 -1.51462 -48.72410 5007 ft 243 kts 299°
2026-04-26 01:33 -1.50568 -48.73844 5010 ft 244 kts 304°
2026-04-26 01:33 -1.49643 -48.75270 5013 ft 244 kts 304°
2026-04-26 01:33 -1.48657 -48.76656 4991 ft 245 kts 316°
2026-04-26 01:33 -1.47181 -48.77469 4415 ft 248 kts 355°
2026-04-26 01:34 -1.45574 -48.77172 4149 ft 234 kts 34°
2026-04-26 01:34 -1.44439 -48.76085 4112 ft 225 kts 58°
2026-04-26 01:34 -1.43846 -48.74660 4114 ft 223 kts 82°
2026-04-26 01:34 -1.43934 -48.73127 4114 ft 223 kts 108°
2026-04-26 01:35 -1.44655 -48.71754 4116 ft 226 kts 121°
2026-04-26 01:35 -1.45502 -48.70424 4117 ft 226 kts 122°
2026-04-26 01:35 -1.46338 -48.69099 4047 ft 227 kts 118°
2026-04-26 01:35 -1.47070 -48.67710 3846 ft 225 kts 115°
2026-04-26 01:36 -1.47746 -48.66309 3639 ft 223 kts 114°
2026-04-26 01:36 -1.48407 -48.64904 3445 ft 223 kts 114°
2026-04-26 01:36 -1.49056 -48.63519 3238 ft 218 kts 114°
2026-04-26 01:37 -1.49679 -48.60709 2828 ft 206 kts 83°
2026-04-26 01:37 -1.49273 -48.59354 2615 ft 202 kts 63°
2026-04-26 01:37 -1.48468 -48.58256 2453 ft 188 kts 46°
2026-04-26 01:37 -1.47588 -48.57372 2256 ft 177 kts 47°
2026-04-26 01:38 -1.46764 -48.56542 2157 ft 159 kts 47°
2026-04-26 01:38 -1.46014 -48.55784 2048 ft 150 kts 48°
2026-04-26 01:38 -1.45295 -48.55058 1858 ft 146 kts 48°
2026-04-26 01:38 -1.44587 -48.54344 1666 ft 144 kts 48°
2026-04-26 01:39 -1.43885 -48.53635 1477 ft 143 kts 48°
2026-04-26 01:39 -1.43186 -48.52928 1297 ft 143 kts 48°
2026-04-26 01:39 -1.42485 -48.52220 1102 ft 143 kts 48°
2026-04-26 01:39 -1.41786 -48.51515 911 ft 143 kts 48°
2026-04-26 01:40 -1.41094 -48.50809 720 ft 142 kts 50°
2026-04-26 01:40 -1.40406 -48.50102 554 ft 141 kts 46°
2026-04-26 01:40 -1.39705 -48.49405 367 ft 142 kts 47°
2026-04-26 01:40 -1.39008 -48.48709 175 ft 142 kts 47°
2026-04-26 01:41 -1.38324 -48.48019 64 ft 131 kts 48°
2026-04-26 01:41 -1.37825 -48.47515 60 ft 61 kts 45°
2026-04-26 01:41 -1.37594 -48.47282 63 ft 43 kts 45°
2026-04-26 01:41 -1.37392 -48.47078 64 ft 39 kts 45°
2026-04-26 01:42 -1.37252 -48.46956 64 ft 20 kts 13°
2026-04-26 01:42 -1.37178 -48.46915 60 ft 6 kts 98°
2026-04-26 01:42 -1.37227 -48.46919 64 ft 12 kts 207°
2026-04-26 01:42 -1.37298 -48.46986 56 ft 14 kts 225°
2026-04-26 01:43 -1.37364 -48.47052 65 ft 13 kts 225°
2026-04-26 01:43 -1.37426 -48.47114 64 ft 12 kts 226°
2026-04-26 01:43 -1.37501 -48.47193 62 ft 18 kts 226°
2026-04-26 01:43 -1.37593 -48.47287 58 ft 20 kts 225°
2026-04-26 01:44 -1.37700 -48.47393 58 ft 23 kts 224°
2026-04-26 01:44 -1.37815 -48.47509 62 ft 24 kts 226°
2026-04-26 01:44 -1.37949 -48.47618 54 ft 26 kts 198°
2026-04-26 01:44 -1.38127 -48.47638 64 ft 26 kts 184°
2026-04-26 01:45 -1.38308 -48.47652 65 ft 27 kts 184°
2026-04-26 01:45 -1.38498 -48.47667 65 ft 28 kts 185°
2026-04-26 01:45 -1.38646 -48.47683 61 ft 7 kts 200°
2026-04-26 01:45 -1.38664 -48.47720 66 ft 6 kts 264°
2026-04-26 01:46 -1.38667 -48.47767 60 ft 7 kts 264°
2026-04-26 01:46 -1.38693 -48.47794 61 ft 5 kts 191°
2026-04-26 01:46 -1.38724 -48.47798 65 ft 4 kts 185°
2026-04-26 01:46 -1.38747 -48.47799 65 ft 3 kts 184°
2026-04-26 01:47 -1.38762 -48.47800 65 ft 2 kts 184°
2026-04-26 01:47 -1.38777 -48.47801 65 ft 6 kts 184°
2026-04-26 01:47 -1.38825 -48.47805 65 ft 6 kts 186°
2026-04-26 01:47 -1.38864 -48.47814 60 ft 5 kts 206°
2026-04-26 01:48 -1.38885 -48.47836 57 ft 4 kts 235°
2026-04-26 01:48 -1.38899 -48.47857 65 ft 3 kts 238°
2026-04-26 01:48 -1.38909 -48.47873 65 ft 2 kts 236°
2026-04-26 01:48 -1.38918 -48.47885 63 ft 2 kts 237°
2026-04-26 01:49 -1.38918 -48.47886 58 ft 0 kts 237°
2026-04-26 01:49 -1.38919 -48.47888 62 ft 1 kts 234°
2026-04-26 01:49 -1.38920 -48.47889 65 ft 0 kts 234°
2026-04-26 01:49 -1.38921 -48.47890 65 ft 0 kts 234°